| time (UTC) | temp F | wind direction | speed MPH | gust MPH | rain 1hr in | rain 24hr in | rain mn in | humidity % | barometer mb |
| 20260903093104 | 57 | 0 | 0.0 | 0.0 | 0.00 | 0.00 | 0.00 | 90 | 1013.4 |
| 20260903091615 | 57 | 0 | 0.0 | 0.0 | 0.00 | 0.00 | 0.00 | 90 | 1013.4 |
| 20260903090106 | 57 | 0 | 0.0 | 0.0 | 0.00 | 0.00 | 0.00 | 90 | 1013.4 |
| 20260903084604 | 58 | 0 | 0.0 | 0.0 | 0.00 | 0.00 | 0.00 | 90 | 1013.3 |
| 20260903083103 | 58 | 0 | 0.0 | 0.0 | 0.00 | 0.00 | 0.00 | 90 | 1013.5 |
| 20260903081604 | 59 | 0 | 0.0 | 0.0 | 0.00 | 0.00 | 0.00 | 89 | 1013.5 |
| 20260903080103 | 59 | 0 | 0.0 | 0.0 | 0.00 | 0.00 | 0.00 | 89 | 1013.6 |
| 20260903074606 | 60 | 0 | 0.0 | 0.0 | 0.00 | 0.00 | 0.00 | 88 | 1013.6 |
| 20260903073101 | 60 | 0 | 0.0 | 0.0 | 0.00 | 0.00 | 0.00 | 88 | 1013.7 |
| 20260903071616 | 60 | 0 | 0.0 | 0.0 | 0.00 | 0.00 | 0.00 | 88 | 1013.7 |
| 20260903070106 | 61 | 0 | 0.0 | 0.0 | 0.00 | 0.00 | 0.00 | 88 | 1014.0 |
| 20260903064559 | 61 | 0 | 0.0 | 0.0 | 0.00 | 0.00 | 0.00 | 88 | 1014.0 |
| 20260903063113 | 61 | 0 | 0.0 | 0.0 | 0.00 | 0.00 | 0.00 | 88 | 1014.2 |
| 20260903061602 | 60 | 0 | 0.0 | 0.0 | 0.00 | 0.00 | 0.00 | 88 | 1014.2 |
| 20260903060104 | 61 | 0 | 0.0 | 0.0 | 0.00 | 0.00 | 0.00 | 87 | 1014.2 |
| 20260903054604 | 61 | 0 | 0.0 | 0.0 | 0.00 | 0.00 | 0.00 | 87 | 1014.4 |
| 20260903053117 | 61 | 0 | 0.0 | 0.0 | 0.00 | 0.00 | 0.00 | 87 | 1014.3 |
| 20260903051601 | 61 | 0 | 0.0 | 0.0 | 0.00 | 0.00 | 0.00 | 87 | 1014.2 |
| 20260903050108 | 61 | 0 | 0.0 | 0.0 | 0.00 | 0.00 | 0.00 | 86 | 1014.1 |
| 20260903044604 | 61 | 0 | 0.0 | 0.0 | 0.00 | 0.00 | 0.00 | 86 | 1014.2 |
| 20260903043113 | 61 | 0 | 0.0 | 0.0 | 0.00 | 0.00 | 0.00 | 86 | 1013.9 |
| 20260903041601 | 62 | 0 | 0.0 | 0.0 | 0.00 | 0.00 | 0.00 | 86 | 1013.8 |
| 20260903040108 | 62 | 0 | 0.0 | 0.0 | 0.00 | 0.00 | 0.00 | 85 | 1013.6 |
| 20260903034611 | 63 | 0 | 0.0 | 0.0 | 0.00 | 0.00 | 0.00 | 85 | 1013.8 |
| 20260903033104 | 63 | 0 | 0.0 | 0.0 | 0.00 | 0.00 | 0.00 | 84 | 1013.8 |
| 20260903031633 | 64 | 0 | 0.0 | 0.0 | 0.00 | 0.00 | 0.00 | 83 | 1013.9 |
| 20260903030106 | 64 | 0 | 0.0 | 0.0 | 0.00 | 0.00 | 0.00 | 82 | 1013.6 |
| 20260903024611 | 65 | 0 | 0.0 | 0.0 | 0.00 | 0.00 | 0.00 | 81 | 1013.7 |
| 20260903023128 | 66 | 0 | 0.0 | 0.0 | 0.00 | 0.00 | 0.00 | 80 | 1013.7 |
| 20260903021607 | 66 | 0 | 0.0 | 0.0 | 0.00 | 0.00 | 0.00 | 78 | 1013.6 |
| 20260903020107 | 67 | 0 | 0.0 | 0.0 | 0.00 | 0.00 | 0.00 | 77 | 1013.7 |
| 20260903014606 | 68 | 0 | 0.0 | 0.0 | 0.00 | 0.00 | 0.00 | 75 | 1013.6 |
| 20260903013109 | 69 | 0 | 0.0 | 0.0 | 0.00 | 0.00 | 0.00 | 73 | 1013.6 |
| 20260903011615 | 70 | 0 | 0.0 | 0.0 | 0.00 | 0.00 | 0.00 | 70 | 1013.3 |
| 20260903010104 | 72 | 0 | 0.0 | 0.0 | 0.00 | 0.00 | 0.00 | 68 | 1013.1 |
| 20260903004603 | 73 | 0 | 0.0 | 0.0 | 0.00 | 0.00 | 0.00 | 65 | 1013.0 |
| 20260903003110 | 75 | 0 | 0.0 | 1.0 | 0.00 | 0.00 | 0.00 | 64 | 1012.9 |
| 20260903001614 | 76 | 30 | 0.0 | 1.0 | 0.00 | 0.00 | 0.00 | 62 | 1012.9 |
| 20260903000104 | 77 | 13 | 1.0 | 4.0 | 0.00 | 0.00 | 0.00 | 60 | 1012.9 |
| 20260902234601 | 78 | 61 | 2.0 | 6.0 | 0.00 | 0.00 | 0.00 | 58 | 1012.8 |
| 20260902233105 | 79 | 51 | 2.0 | 4.0 | 0.00 | 0.00 | 0.00 | 56 | 1012.8 |
| 20260902231607 | 81 | 0 | 1.0 | 6.0 | 0.00 | 0.00 | 0.00 | 54 | 1012.5 |
| 20260902230107 | 82 | 49 | 2.0 | 6.0 | 0.00 | 0.00 | 0.00 | 52 | 1012.4 |
| 20260902224609 | 83 | 45 | 2.0 | 6.0 | 0.00 | 0.00 | 0.00 | 50 | 1012.4 |
| 20260902223105 | 84 | 33 | 2.0 | 4.0 | 0.00 | 0.00 | 0.00 | 50 | 1012.4 |
| 20260902221609 | 84 | 28 | 1.0 | 5.0 | 0.00 | 0.00 | 0.00 | 50 | 1012.3 |
| 20260902220105 | 84 | 26 | 2.0 | 8.0 | 0.00 | 0.00 | 0.00 | 50 | 1012.2 |
| 20260902214606 | 85 | 326 | 2.0 | 7.0 | 0.00 | 0.00 | 0.00 | 50 | 1012.1 |
| 20260902213102 | 86 | 20 | 1.0 | 7.0 | 0.00 | 0.00 | 0.00 | 47 | 1012.1 |
| 20260902211617 | 86 | 54 | 1.0 | 6.0 | 0.00 | 0.00 | 0.00 | 46 | 1011.9 |
| 20260902210119 | 87 | 63 | 1.0 | 8.0 | 0.00 | 0.00 | 0.00 | 44 | 1011.9 |
| 20260902204603 | 87 | 44 | 3.0 | 5.0 | 0.00 | 0.00 | 0.00 | 43 | 1012.0 |
| 20260902203101 | 87 | 42 | 2.0 | 4.0 | 0.00 | 0.00 | 0.00 | 41 | 1012.2 |
| 20260902201613 | 86 | 121 | 1.0 | 5.0 | 0.00 | 0.00 | 0.00 | 43 | 1012.4 |
| 20260902194604 | 85 | 49 | 3.0 | 6.0 | 0.00 | 0.00 | 0.00 | 45 | 1012.5 |
| 20260902193101 | 86 | 22 | 1.0 | 5.0 | 0.00 | 0.00 | 0.00 | 45 | 1012.7 |
| 20260902191606 | 86 | 42 | 2.0 | 5.0 | 0.00 | 0.00 | 0.00 | 45 | 1012.7 |
| 20260902190106 | 86 | 266 | 2.0 | 5.0 | 0.00 | 0.00 | 0.00 | 44 | 1012.7 |
| 20260902184603 | 85 | 306 | 2.0 | 10.0 | 0.00 | 0.00 | 0.00 | 44 | 1012.9 |
| 20260902183101 | 86 | 129 | 2.0 | 7.0 | 0.00 | 0.00 | 0.00 | 42 | 1012.9 |
| 20260902181606 | 86 | 279 | 1.0 | 4.0 | 0.00 | 0.00 | 0.00 | 43 | 1013.0 |
| 20260902180117 | 85 | 269 | 2.0 | 5.0 | 0.00 | 0.00 | 0.00 | 44 | 1013.0 |
| 20260902174603 | 84 | 271 | 1.0 | 7.0 | 0.00 | 0.00 | 0.00 | 46 | 1013.2 |
| 20260902173103 | 84 | 0 | 2.0 | 6.0 | 0.00 | 0.00 | 0.00 | 46 | 1013.7 |
| 20260902171601 | 83 | 263 | 2.0 | 5.0 | 0.00 | 0.00 | 0.00 | 49 | 1013.4 |
| 20260902170114 | 82 | 39 | 1.0 | 4.0 | 0.00 | 0.00 | 0.00 | 48 | 1013.3 |
| 20260902164606 | 81 | 11 | 1.0 | 4.0 | 0.00 | 0.00 | 0.00 | 51 | 1013.4 |
| 20260902163100 | 81 | 0 | 1.0 | 3.0 | 0.00 | 0.00 | 0.00 | 50 | 1013.5 |
| 20260902161608 | 80 | 184 | 1.0 | 4.0 | 0.00 | 0.00 | 0.00 | 54 | 1013.5 |
| 20260902154603 | 79 | 164 | 0.0 | 3.0 | 0.00 | 0.00 | 0.00 | 56 | 1013.5 |
| 20260902153055 | 78 | 140 | 1.0 | 6.0 | 0.00 | 0.00 | 0.00 | 59 | 1013.6 |
| 20260902151607 | 76 | 254 | 1.0 | 6.0 | 0.00 | 0.00 | 0.00 | 61 | 1013.5 |
| 20260902144610 | 74 | 121 | 1.0 | 4.0 | 0.00 | 0.00 | 0.00 | 67 | 1013.6 |
| 20260902143106 | 74 | 134 | 0.0 | 4.0 | 0.00 | 0.00 | 0.00 | 67 | 1013.7 |
| 20260902141602 | 73 | 178 | 2.0 | 6.0 | 0.00 | 0.00 | 0.00 | 68 | 1013.9 |
| 20260902134602 | 68 | 111 | 0.0 | 2.0 | 0.00 | 0.00 | 0.00 | 80 | 1014.1 |
| 20260902133103 | 65 | 0 | 0.0 | 1.0 | 0.00 | 0.00 | 0.00 | 85 | 1014.2 |
| 20260902131604 | 64 | 0 | 0.0 | 0.0 | 0.00 | 0.00 | 0.00 | 85 | 1014.1 |
| 20260902130106 | 63 | 0 | 0.0 | 0.0 | 0.00 | 0.00 | 0.00 | 86 | 1014.1 |
| 20260902124558 | 62 | 0 | 0.0 | 0.0 | 0.00 | 0.00 | 0.00 | 87 | 1014.0 |
| 20260902123103 | 61 | 0 | 0.0 | 0.0 | 0.00 | 0.00 | 0.00 | 87 | 1013.7 |
| 20260902121604 | 61 | 0 | 0.0 | 0.0 | 0.00 | 0.00 | 0.00 | 87 | 1013.7 |
| 20260902114600 | 61 | 0 | 0.0 | 0.0 | 0.00 | 0.00 | 0.00 | 86 | 1013.5 |
| 20260902113058 | 62 | 0 | 0.0 | 0.0 | 0.00 | 0.00 | 0.00 | 84 | 1013.3 |
| 20260902111602 | 63 | 0 | 0.0 | 0.0 | 0.00 | 0.00 | 0.00 | 83 | 1013.2 |
| 20260902110108 | 64 | 0 | 0.0 | 0.0 | 0.00 | 0.00 | 0.00 | 81 | 1013.2 |
| 20260902104600 | 65 | 0 | 0.0 | 0.0 | 0.00 | 0.00 | 0.00 | 80 | 1013.5 |
| 20260902103058 | 66 | 0 | 0.0 | 1.0 | 0.00 | 0.00 | 0.00 | 79 | 1013.5 |
| 20260902101601 | 66 | 0 | 0.0 | 1.0 | 0.00 | 0.00 | 0.00 | 79 | 1013.7 |
| 20260902100110 | 66 | 0 | 0.0 | 3.0 | 0.00 | 0.00 | 0.00 | 79 | 1013.8 |
| 20260902094615 | 66 | 162 | 0.0 | 2.0 | 0.00 | 0.00 | 0.00 | 79 | 1013.8 |